Starlink 11198

operational
NORAD ID: 60114 Int'l Des: 2024-118 Owner: SPXS Country: US Constellation: starlink
LEOCIRCULAR

About Starlink 11198

Description loading...

Live Position

Loading 3D Globe...

Upcoming Passes

Altitude History

Altitude vs Time

uPlot chart will show altitude changes over time

Two-Line Element Set

1 60114U 24118B 25305.54779636 .00000268 00000-0 70781-5 0 9994
2 60114 53.1598 133.2189 0001125 76.6484 283.4659 15.69693334 77860
Epoch: Nov 1, 2025 • Age: 21 hours

Current Status

Altitude 359.9 km
Velocity 7.70 km/s
Sub-Earth Point 16.75°N, 108.83°E
Launch Date Jun 24, 2024
Age 1.3 years
Type internet

Technical Details

Classification Payload
Mass 960.00 kg
Dry Mass 910.00 kg
Total Mass 960.00 kg
Length 0.30 m
Diameter 4.10 m
Span 29.00 m
Shape Box + pan
Manufacturer SPXS
Bus Type Starlink V2MD
Phase Status In Orbit
Owner/State SPXS/US

Large Constellations

Loading constellations...